Find SBIRS GEO-4

NORAD ID: 41937 Int'l Des: 2017-004 Owner: AFSPC Country: US operational
HEOCIRCULARGSO

リアルタイム位置

3D地球を読み込み中...

SBIRS GEO-4について

説明を読み込み中...

次回通過

Passes for default location (London). Set your location on the main map for personalized predictions.

高度履歴

Loading altitude history...

軌道要素

1 41937U 17004A 26106.92839351 .00000131 00000-0 00000-0 0 9996
2 41937 2.1287 41.4695 0002214 338.4406 180.2855 1.00271901 33985
Epoch: Apr 16, 2026 • Age: 14 hours

現在のステータス

高度 35778.5 km
速度 3.08 km/s
衛星直下点 0.61°N, 20.9°E
打ち上げ日 Jan 21, 2017
運用期間 9.2 years
タイプ military

技術仕様

分類 Payload
質量 4500.00 kg
乾燥質量 2500.00 kg
総質量 4500.00 kg
長さ 6.00 m
直径 2.50 m
スパン 25.00 m
形状 Box + 2 Pan
製造者 LMSS
バスタイプ A2100
フェーズステータス In Orbit
所有者/国 AFSPC/US

Most Searched